Location: Holbach
(51.5399°N, 10.6036°E)
Time: 07:17:22
(UTC+00:00)

NOSS 2-3 (E) - Pass Details

Date: 18 September 2020
Orbit: 574 x 1638 km, 63.4° (Epoch: 08 October)

Event Time Altitude Azimuth Distance (km) Brightness Sun altitude
Rises 17:56:20 0° 238° (WSW) 2,831 7.8 -5.8°
Reaches altitude 10° 17:58:26 10° 243° (WSW) 1,988 7.1 -6.1°
Maximum altitude 18:02:47 58° 323° (NW) 815 4.5 -6.8°
Drops below altitude 10° 18:08:10 10° 42° (NE) 2,443 6.3 -7.6°
Sets 18:11:00 0° 47° (NE) 3,550 7.1 -8.0°
